Weather History for KBGE - February, 2013

Change the Weather History Date:

Saturday, February 16, 2013

  Actual Average (KMAI) Record (KMAI)
Temperature  
Mean Temperature 46 °F 55 °F  
Max Temperature 57 °F 66 °F - ()
Min Temperature 35 °F 43 °F - ()
Degree Days  
Heating Degree Days 19    
Month to date heating degree days  
Since 1 July heating degree days  
Cooling Degree Days 0    
Month to date cooling degree days  
Year to date cooling degree days  
Moisture  
Dew Point 33 °F    
Average Humidity 66    
Maximum Humidity 93    
Minimum Humidity 30    
Precipitation  
Precipitation 0.00 in 0.16 in - ()
Month to date precipitation 2.70  
Year to date precipitation 7.74  
Sea Level Pressure  
Sea Level Pressure 30.07 in    
Wind  
Wind Speed 6 mph (NW)    
Max Wind Speed 23 mph    
Max Gust Speed 32 mph    
Visibility 10 miles    
Events Rain    
T = Trace of Precipitation, MM = Missing Value Source: NWS Daily Summary

Daily Weather History Graph

Daily Weather History Graph

Search for Another Location

Airport or City:

Trip Planner

Search our weather history database for the weather conditions in past years. The results will help you decide how hot, cold, wet, or windy it might be!

Date:

Astronomy

Feb. 16, 2013 Rise Set
Actual Time 7:18 AM EST 6:27 PM EST
Civil Twilight 6:53 AM EST 6:51 PM EST
Nautical Twilight 6:25 AM EST 7:20 PM EST
Astronomical Twilight 5:57 AM EST 7:48 PM EST
Moon 10:59 AM EST (2/16) No Moon Set
Length of Visible Light 11h 58m
Length of Day
11h 08m
Waxing Crescent, 39% of the Moon is Illuminated
Feb 16
Waxing Crescent
Feb 17
First Quarter
Feb 25
Full
Mar 4
Last Quarter
Mar 11
New

Hourly Weather History & Observations

Time (EST) Temp. Windchill Dew Point Humidity Pressure Visibility Wind Dir Wind Speed Gust Speed Precip Events Conditions
12:15 AM 44.6 °F 43.1 °F 42.8 °F 93% 30.03 in 10.0 mi West 3.5 mph - N/A   Clear
12:35 AM 44.6 °F 42.2 °F 42.8 °F 93% 30.03 in 10.0 mi WSW 4.6 mph - N/A   Clear
1:15 AM 44.6 °F - 42.8 °F 93% 30.02 in 10.0 mi Calm Calm - N/A   Clear
1:35 AM 44.6 °F - 41.0 °F 87% 30.01 in 10.0 mi Calm Calm - N/A   Clear
1:55 AM 44.6 °F - 41.0 °F 87% 30.01 in 10.0 mi Calm Calm - N/A   Clear
2:15 AM 44.6 °F - 41.0 °F 87% 30.00 in 10.0 mi Calm Calm - N/A   Clear
2:35 AM 44.6 °F 42.2 °F 41.0 °F 87% 30.00 in 10.0 mi West 4.6 mph - N/A   Clear
2:55 AM 44.6 °F - 41.0 °F 87% 30.00 in 10.0 mi Calm Calm - N/A   Clear
3:15 AM 44.6 °F - 41.0 °F 87% 29.99 in 10.0 mi Calm Calm - N/A   Clear
3:35 AM 44.6 °F - 41.0 °F 87% 29.98 in 10.0 mi Calm Calm - N/A   Clear
3:55 AM 42.8 °F - 41.0 °F 93% 29.98 in 10.0 mi Calm Calm - N/A   Clear
4:15 AM 42.8 °F - 41.0 °F 93% 29.99 in 10.0 mi Calm Calm - N/A   Clear
4:35 AM 42.8 °F - 41.0 °F 93% 29.99 in 10.0 mi Calm Calm - N/A   Clear
4:55 AM 42.8 °F 40.1 °F 41.0 °F 93% 30.00 in 10.0 mi WNW 4.6 mph - N/A   Clear
5:15 AM 44.6 °F 43.1 °F 41.0 °F 87% 30.00 in 10.0 mi WNW 3.5 mph - N/A   Clear
5:35 AM 42.8 °F 41.1 °F 41.0 °F 93% 30.00 in 10.0 mi WNW 3.5 mph - N/A   Clear
5:55 AM 42.8 °F - 41.0 °F 93% 30.00 in 10.0 mi Calm Calm - N/A   Clear
6:15 AM 41.0 °F 38.0 °F 39.2 °F 93% 30.01 in 10.0 mi West 4.6 mph - N/A   Clear
6:35 AM 42.8 °F 40.1 °F 41.0 °F 93% 30.01 in 10.0 mi WNW 4.6 mph - N/A   Clear
6:55 AM 42.8 °F 39.3 °F 41.0 °F 93% 30.02 in 10.0 mi WNW 5.8 mph - N/A   Clear
7:15 AM 44.6 °F 42.2 °F 41.0 °F 87% 30.02 in 10.0 mi NW 4.6 mph - N/A   Clear
7:35 AM 44.6 °F 41.4 °F 41.0 °F 87% 30.03 in 10.0 mi WNW 5.8 mph - N/A   Scattered Clouds
8:15 AM 44.6 °F 41.4 °F 41.0 °F 87% 30.04 in 10.0 mi NNW 5.8 mph - N/A   Mostly Cloudy
8:35 AM 44.6 °F 39.7 °F 41.0 °F 87% 30.06 in 10.0 mi NW 9.2 mph - N/A   Overcast
8:55 AM 44.6 °F 37.4 °F 41.0 °F 87% 30.07 in 7.0 mi NNW 16.1 mph 20.7 mph N/A Rain Rain
9:15 AM 44.6 °F 41.4 °F 41.0 °F 87% 30.09 in 7.0 mi NW 5.8 mph 16.1 mph N/A Rain Rain
9:35 AM 44.6 °F 40.7 °F 42.8 °F 93% 30.10 in 5.0 mi WNW 6.9 mph - N/A Rain Light Rain
9:55 AM 44.6 °F 40.7 °F 41.0 °F 87% 30.08 in 10.0 mi WNW 6.9 mph - N/A   Scattered Clouds
10:15 AM 46.4 °F 42.4 °F 42.8 °F 87% 30.08 in 10.0 mi NW 8.1 mph - N/A   Clear
10:35 AM 46.4 °F - 41.0 °F 81% 30.06 in 10.0 mi Calm Calm - N/A   Clear
12:15 PM 53.6 °F - 35.6 °F 51% 30.06 in 10.0 mi West 16.1 mph 23.0 mph N/A   Scattered Clouds
1:35 PM 55.4 °F - 32.0 °F 41% 30.03 in 10.0 mi WNW 16.1 mph 31.1 mph N/A   Clear
1:55 PM 57.2 °F - 32.0 °F 38% 30.02 in 10.0 mi WNW 19.6 mph 26.5 mph N/A   Clear
2:15 PM 53.6 °F - 32.0 °F 44% 30.02 in 10.0 mi NW 21.9 mph 28.8 mph N/A   Scattered Clouds
2:35 PM 53.6 °F - 30.2 °F 41% 30.03 in 10.0 mi WNW 17.3 mph 27.6 mph N/A   Scattered Clouds
2:55 PM 53.6 °F - 30.2 °F 41% 30.02 in 10.0 mi NW 23.0 mph 31.1 mph N/A   Scattered Clouds
3:15 PM 53.6 °F - 26.6 °F 35% 30.02 in 10.0 mi NW 23.0 mph 31.1 mph N/A   Clear
3:35 PM 53.6 °F - 28.4 °F 38% 30.03 in 10.0 mi WNW 20.7 mph 31.1 mph N/A   Clear
4:15 PM 51.8 °F - 26.6 °F 38% 30.04 in 10.0 mi NW 17.3 mph 27.6 mph N/A   Scattered Clouds
4:35 PM 51.8 °F - 26.6 °F 38% 30.04 in 10.0 mi NW 18.4 mph 24.2 mph N/A   Scattered Clouds
4:55 PM 51.8 °F - 26.6 °F 38% 30.05 in 10.0 mi NW 19.6 mph 28.8 mph N/A   Scattered Clouds
5:15 PM 51.8 °F - 23.0 °F 33% 30.05 in 10.0 mi NW 16.1 mph 28.8 mph N/A   Clear
5:35 PM 51.8 °F - 21.2 °F 30% 30.06 in 10.0 mi NW 17.3 mph 32.2 mph N/A   Clear
5:55 PM 50.0 °F - 19.4 °F 30% 30.07 in 10.0 mi NW 20.7 mph 26.5 mph N/A   Clear
6:15 PM 48.2 °F - 19.4 °F 32% 30.08 in 10.0 mi NW 17.3 mph - N/A   Clear
6:35 PM 46.4 °F 39.8 °F 17.6 °F 32% 30.09 in 10.0 mi NW 16.1 mph 21.9 mph N/A   Clear
6:55 PM 44.6 °F 38.4 °F 17.6 °F 34% 30.09 in 10.0 mi NW 12.7 mph - N/A   Clear
7:15 PM 44.6 °F 38.4 °F 17.6 °F 34% 30.11 in 10.0 mi NW 12.7 mph - N/A   Clear
7:35 PM 44.6 °F 39.2 °F 19.4 °F 37% 30.12 in 10.0 mi NW 10.4 mph - N/A   Clear
7:55 PM 42.8 °F 37.5 °F 17.6 °F 36% 30.13 in 10.0 mi NW 9.2 mph - N/A   Clear
8:15 PM 42.8 °F 37.5 °F 17.6 °F 36% 30.14 in 10.0 mi NW 9.2 mph 16.1 mph N/A   Clear
8:35 PM 42.8 °F 38.0 °F 17.6 °F 36% 30.15 in 10.0 mi NW 8.1 mph - N/A   Clear
8:55 PM 42.8 °F 37.5 °F 17.6 °F 36% 30.17 in 10.0 mi NW 9.2 mph - N/A   Clear
9:15 PM 41.0 °F 37.1 °F 19.4 °F 42% 30.18 in 10.0 mi NW 5.8 mph - N/A   Clear
9:35 PM 39.2 °F 35.0 °F 23.0 °F 52% 30.19 in 10.0 mi WNW 5.8 mph - N/A   Clear
9:55 PM 39.2 °F 35.0 °F 23.0 °F 52% 30.20 in 10.0 mi NW 5.8 mph - N/A   Clear
10:15 PM 37.4 °F 33.8 °F 26.6 °F 65% 30.21 in 10.0 mi WNW 4.6 mph - N/A   Clear
10:55 PM 35.6 °F 30.7 °F 26.6 °F 70% 30.22 in 10.0 mi WNW 5.8 mph - N/A   Clear
11:15 PM 35.6 °F 31.7 °F 26.6 °F 70% 30.22 in 10.0 mi WNW 4.6 mph - N/A   Clear
11:35 PM 35.6 °F 29.2 °F 26.6 °F 70% 30.23 in 10.0 mi WNW 8.1 mph - N/A   Clear
11:55 PM 35.6 °F 30.7 °F 26.6 °F 70% 30.23 in 10.0 mi WNW 5.8 mph - N/A   Clear